Location: Praha
(50.0830°N, 14.4670°E)
Time: 06:08:42
(UTC+01:00)

ISS - Pass Details

Date: 25 February 2020
Orbit: 415 x 423 km, 51.6° (Epoch: 27 February)

Event Time Altitude Azimuth Distance (km) Brightness Sun altitude
Exits shadow 05:57:24 - 231° (SW) 1,649 -1.2 -10.0°
Reaches altitude 10° 05:57:47 10° 229° (SW) 1,498 -1.4 -9.9°
Maximum altitude 06:01:03 49° 153° (SSE) 548 -3.0 -9.4°
Drops below altitude 10° 06:04:20 10° 78° (ENE) 1,508 0.5 -8.9°
Sets 06:06:28 0° 73° (ENE) 2,376 1.5 -8.5°
